OE7AOT Weather Reports


Display with metric or nautical units.
time (UTC)temp
F
wind
direction
speed
MPH
gust
MPH
rain 1hr
in
rain 24hr
in
rain mn
in
humidity
%
barometer
mb
20260504081717 65 176 5.0 0.0 0.00 1.11 0.00 42 912.4
20260504044717 51 0 0.0 0.0 0.00 1.11 0.00 62 913.1
20260504041717 52 136 2.0 0.0 0.00 1.11 0.00 61 912.9
20260504034717 52 134 3.0 0.0 0.00 1.11 0.00 60 912.9
20260504031717 52 0 0.0 0.0 0.00 1.11 0.00 60 912.9
20260504024717 53 0 0.0 0.0 0.00 1.11 0.00 59 913.0
20260504021717 53 0 0.0 0.0 0.00 1.11 0.00 58 912.9
20260504014717 54 0 0.0 0.0 0.00 1.11 0.00 55 912.9
20260504011717 55 0 0.0 0.0 0.00 1.11 0.00 53 912.8
20260504004717 55 0 0.0 0.0 0.00 1.11 0.00 51 912.8
20260504001717 56 0 0.0 0.0 0.00 1.11 0.00 49 912.7
20260503234717 56 0 0.0 0.0 0.00 1.11 0.00 48 912.6
20260503231717 57 0 0.0 0.0 0.00 1.11 0.00 47 912.6
20260503224717 57 0 0.0 0.0 0.00 1.11 0.00 46 912.4
20260503221717 58 0 0.0 0.0 0.00 1.11 0.00 44 912.3
20260503214717 59 0 0.0 0.0 0.00 1.11 0.00 43 911.9
20260503211717 60 0 0.0 0.0 0.00 1.11 0.00 41 911.8
20260503204717 61 0 0.0 0.0 0.00 1.11 0.00 41 911.4
20260503201717 63 0 0.0 0.0 0.00 1.11 0.00 39 911.4
20260503194717 64 0 0.0 0.0 0.00 1.11 0.00 37 911.3
20260503191717 67 0 0.0 0.0 0.00 1.11 0.00 34 911.1
20260503184717 69 0 0.0 0.0 0.00 1.11 0.00 32 910.8
20260503181717 72 0 0.0 0.0 0.00 1.11 0.00 27 910.5
20260503174717 76 293 3.0 0.0 0.00 1.11 0.00 22 910.3
20260503171717 79 279 9.0 0.0 0.00 1.11 0.00 20 910.1